Location: Hopkins Observatory
(42.6965°N, 73.1843°W)
Time: 21:15:04
(UTC-04:00)

UOSAT-12 - Visible Passes

Search period start: 26 August 2016 00:00
Search period end: 05 September 2016 00:00
Orbit: 624 x 630 km, 64.6° (Epoch: 25 August)

Date Brightness Start Highest point End Pass type
(mag) Time Alt. Az. Time Alt. Az. Time Alt. Az.
26 Aug 9.4 02:11:30 21° N 02:11:30 21° N 02:13:26 10° NNE visible
27 Aug 10.1 00:53:26 11° NE 00:53:26 11° NE 00:53:32 10° NE visible
27 Aug 9.5 02:30:43 17° NNW 02:30:43 17° NNW 02:32:45 10° N visible
28 Aug 10.0 01:12:38 14° NNE 01:12:38 14° NNE 01:13:22 10° NNE visible
28 Aug 9.8 02:49:55 11° NNW 02:50:02 11° NNW 02:51:18 10° NNW visible
29 Aug 9.9 01:31:49 16° N 01:31:49 16° N 01:32:55 10° NNE visible
30 Aug 9.9 01:50:58 14° NNW 01:50:58 14° NNW 01:52:10 10° N visible
31 Aug 10.2 00:32:49 10° NNE 00:32:49 10° NNE 00:32:54 10° NNE visible
01 Sep 10.2 00:51:55 12° N 00:51:55 12° N 00:52:24 10° NNE visible
02 Sep 10.2 01:11:00 11° N 01:11:00 11° N 01:11:31 10° N visible
04 Sep 10.3 00:11:46 10° N 00:11:46 10° N 00:11:52 10° N visible
04 Sep 10.2 05:13:52 10° N 05:15:30 12° NNE 05:17:08 10° NE visible
